• En Colombia
  • Lista de países
  • Para 7 días
  • Temperatura del agua
  • El tiempo en el mapa
  • Informadores
  • user-avatar
    Iniciar sesión

    Tiempo cada hora Fier

    Hoy, 12 Diciembre, Jueves

    Tiempo Temperatura Precipitaciones Viento Presión Humedad
    00:00 +9°C° 0 mm 3 mps 754 mmHg 74%
    01:00 +9°C° 0 mm 3 mps 754 mmHg 74%
    02:00 +8°C° 0 mm 3 mps 754 mmHg 74%
    03:00 +8°C° 0 mm 3 mps 753 mmHg 74%
    04:00 +8°C° 0 mm 3 mps 753 mmHg 75%
    05:00 +8°C° 0 mm 2 mps 753 mmHg 75%
    06:00 +8°C° 0 mm 2 mps 753 mmHg 75%
    07:00 +8°C° 0 mm 2 mps 753 mmHg 74%
    08:00 +10°C° 0 mm 2 mps 753 mmHg 71%
    09:00 +12°C° 0 mm 2 mps 753 mmHg 68%
    10:00 +13°C° 0 mm 1 mps 753 mmHg 64%
    11:00 +14°C° 0 mm 2 mps 753 mmHg 64%
    12:00 +14°C° 0 mm 2 mps 752 mmHg 64%
    13:00 +15°C° 0 mm 2 mps 752 mmHg 64%
    14:00 +14°C° 0.4 mm 2 mps 752 mmHg 71%
    15:00 +13°C° 0.4 mm 2 mps 752 mmHg 78%
    16:00 +12°C° 0.4 mm 2 mps 752 mmHg 85%
    17:00 +11°C° 0.4 mm 3 mps 752 mmHg 85%
    18:00 +11°C° 0.4 mm 3 mps 752 mmHg 84%
    19:00 +10°C° 0.4 mm 3 mps 752 mmHg 84%
    20:00 +10°C° 0.3 mm 3 mps 752 mmHg 83%
    21:00 +10°C° 0.3 mm 4 mps 752 mmHg 83%
    22:00 +10°C° 0.3 mm 4 mps 751 mmHg 82%
    23:00 +10°C° 0.6 mm 3 mps 751 mmHg 83%

    Mañana, 13 Diciembre, Viernes

    Tiempo Temperatura Precipitaciones Viento Presión Humedad
    00:00 +10°C° 0.6 mm 3 mps 751 mmHg 83%
    01:00 +10°C° 0.6 mm 3 mps 751 mmHg 84%
    02:00 +10°C° 0.6 mm 3 mps 750 mmHg 84%
    03:00 +10°C° 0.6 mm 3 mps 750 mmHg 84%
    04:00 +10°C° 0.6 mm 3 mps 750 mmHg 84%
    05:00 +10°C° 0.3 mm 3 mps 750 mmHg 84%
    06:00 +10°C° 0.3 mm 3 mps 750 mmHg 84%
    07:00 +10°C° 0.3 mm 4 mps 750 mmHg 84%
    08:00 +11°C° 0.2 mm 4 mps 750 mmHg 78%
    09:00 +12°C° 0.2 mm 4 mps 750 mmHg 72%
    10:00 +13°C° 0.2 mm 4 mps 750 mmHg 67%
    11:00 +13°C° 0.1 mm 5 mps 750 mmHg 65%
    12:00 +14°C° 0.1 mm 6 mps 749 mmHg 63%
    13:00 +14°C° 0.1 mm 6 mps 749 mmHg 62%
    14:00 +14°C° 0.2 mm 6 mps 748 mmHg 66%
    15:00 +13°C° 0.2 mm 6 mps 748 mmHg 69%
    16:00 +11°C° 0.2 mm 6 mps 747 mmHg 73%
    17:00 +11°C° 0.4 mm 6 mps 747 mmHg 75%
    18:00 +11°C° 0.4 mm 7 mps 746 mmHg 77%
    19:00 +11°C° 0.4 mm 7 mps 746 mmHg 78%
    20:00 +10°C° 0.4 mm 7 mps 745 mmHg 79%
    21:00 +10°C° 0.4 mm 7 mps 744 mmHg 81%
    22:00 +10°C° 0.4 mm 8 mps 743 mmHg 82%
    23:00 +10°C° 2.8 mm 7 mps 742 mmHg 85%

    Pasado mañana, 14 Diciembre, Sábado

    Tiempo Temperatura Precipitaciones Viento Presión Humedad
    00:00 +10°C° 2.8 mm 7 mps 741 mmHg 87%
    01:00 +10°C° 2.8 mm 7 mps 740 mmHg 90%
    02:00 +10°C° 2.2 mm 7 mps 740 mmHg 87%
    03:00 +10°C° 2.2 mm 6 mps 740 mmHg 83%
    04:00 +10°C° 2.2 mm 5 mps 740 mmHg 80%
    05:00 +9°C° 1.2 mm 5 mps 741 mmHg 83%
    06:00 +10°C° 1.2 mm 4 mps 741 mmHg 87%
    07:00 +8°C° 1.2 mm 4 mps 742 mmHg 90%
    08:00 +10°C° 0.3 mm 3 mps 742 mmHg 86%
    09:00 +11°C° 0.3 mm 3 mps 743 mmHg 81%
    10:00 +13°C° 0.3 mm 2 mps 744 mmHg 77%
    11:00 +12°C° 0 mm 3 mps 744 mmHg 74%
    12:00 +13°C° 0 mm 4 mps 745 mmHg 72%
    13:00 +14°C° 0 mm 5 mps 746 mmHg 70%
    14:00 +13°C° 0 mm 5 mps 747 mmHg 72%
    15:00 +13°C° 0 mm 5 mps 748 mmHg 74%
    16:00 +12°C° 0 mm 5 mps 749 mmHg 76%
    17:00 +12°C° 0 mm 5 mps 750 mmHg 77%
    18:00 +12°C° 0 mm 4 mps 751 mmHg 78%
    19:00 +11°C° 0 mm 3 mps 753 mmHg 79%
    20:00 +11°C° 0 mm 3 mps 754 mmHg 79%
    21:00 +11°C° 0 mm 3 mps 755 mmHg 79%
    22:00 +11°C° 0 mm 3 mps 756 mmHg 79%
    23:00 +10°C° 0 mm 3 mps 756 mmHg 80%

    15 Diciembre, Domingo

    Tiempo Temperatura Precipitaciones Viento Presión Humedad
    00:00 +10°C° 0 mm 3 mps 757 mmHg 80%
    01:00 +10°C° 0 mm 2 mps 758 mmHg 80%
    02:00 +10°C° 0 mm 2 mps 758 mmHg 80%
    03:00 +10°C° 0 mm 2 mps 759 mmHg 79%
    04:00 +10°C° 0 mm 2 mps 759 mmHg 79%
    05:00 +10°C° 0 mm 2 mps 760 mmHg 79%
    06:00 +10°C° 0 mm 2 mps 760 mmHg 79%
    07:00 +10°C° 0 mm 3 mps 761 mmHg 78%
    08:00 +12°C° 0 mm 2 mps 761 mmHg 75%
    09:00 +14°C° 0 mm 2 mps 762 mmHg 71%
    10:00 +16°C° 0 mm 2 mps 762 mmHg 68%
    11:00 +17°C° 0 mm 2 mps 762 mmHg 65%
    12:00 +19°C° 0 mm 1 mps 762 mmHg 63%
    13:00 +20°C° 0 mm 1 mps 762 mmHg 60%
    14:00 +19°C° 0 mm 1 mps 763 mmHg 65%
    15:00 +18°C° 0 mm 1 mps 763 mmHg 71%
    16:00 +16°C° 0 mm 2 mps 763 mmHg 76%
    17:00 +15°C° 0 mm 2 mps 764 mmHg 77%
    18:00 +15°C° 0 mm 2 mps 764 mmHg 78%
    19:00 +13°C° 0 mm 3 mps 765 mmHg 79%
    20:00 +13°C° 0 mm 3 mps 765 mmHg 78%
    21:00 +14°C° 0 mm 2 mps 765 mmHg 78%
    22:00 +13°C° 0 mm 2 mps 766 mmHg 78%
    23:00 +13°C° 0 mm 2 mps 766 mmHg 78%

    16 Diciembre, Lunes

    Tiempo Temperatura Precipitaciones Viento Presión Humedad
    00:00 +13°C° 0 mm 2 mps 766 mmHg 77%
    01:00 +13°C° 0 mm 2 mps 766 mmHg 77%
    02:00 +13°C° 0 mm 2 mps 766 mmHg 77%
    03:00 +13°C° 0 mm 2 mps 766 mmHg 78%
    04:00 +13°C° 0 mm 2 mps 766 mmHg 78%
    05:00 +11°C° 0 mm 3 mps 767 mmHg 78%
    06:00 +11°C° 0 mm 3 mps 767 mmHg 78%
    07:00 +11°C° 0 mm 3 mps 767 mmHg 79%
    08:00 +14°C° 0 mm 2 mps 767 mmHg 75%
    09:00 +15°C° 0 mm 2 mps 768 mmHg 71%
    10:00 +16°C° 0 mm 2 mps 768 mmHg 68%
    11:00 +17°C° 0 mm 2 mps 767 mmHg 66%
    12:00 +18°C° 0 mm 2 mps 767 mmHg 65%
    13:00 +18°C° 0 mm 2 mps 767 mmHg 64%
    14:00 +17°C° 0 mm 2 mps 767 mmHg 68%
    15:00 +17°C° 0 mm 2 mps 767 mmHg 73%
    16:00 +16°C° 0 mm 2 mps 767 mmHg 78%
    17:00 +15°C° 0 mm 2 mps 767 mmHg 79%
    18:00 +15°C° 0 mm 2 mps 767 mmHg 80%
    19:00 +14°C° 0 mm 2 mps 767 mmHg 80%
    20:00 +14°C° 0 mm 2 mps 767 mmHg 81%
    21:00 +13°C° 0 mm 2 mps 767 mmHg 81%
    22:00 +13°C° 0 mm 2 mps 767 mmHg 81%
    23:00 +13°C° 0 mm 2 mps 767 mmHg 81%

    17 Diciembre, Martes

    Tiempo Temperatura Precipitaciones Viento Presión Humedad
    00:00 +13°C° 0 mm 2 mps 767 mmHg 81%
    01:00 +13°C° 0 mm 2 mps 767 mmHg 81%
    02:00 +12°C° 0 mm 2 mps 767 mmHg 81%
    03:00 +12°C° 0 mm 2 mps 767 mmHg 81%
    04:00 +12°C° 0 mm 2 mps 767 mmHg 80%
    05:00 +12°C° 0 mm 2 mps 767 mmHg 80%
    06:00 +12°C° 0 mm 2 mps 767 mmHg 79%
    07:00 +12°C° 0 mm 2 mps 767 mmHg 79%
    08:00 +13°C° 0 mm 2 mps 767 mmHg 74%
    09:00 +14°C° 0 mm 2 mps 767 mmHg 70%
    10:00 +16°C° 0 mm 2 mps 767 mmHg 66%
    11:00 +17°C° 0 mm 2 mps 767 mmHg 64%
    12:00 +17°C° 0 mm 2 mps 766 mmHg 62%
    13:00 +18°C° 0 mm 2 mps 766 mmHg 60%
    14:00 +17°C° 0 mm 2 mps 766 mmHg 65%
    15:00 +16°C° 0 mm 2 mps 766 mmHg 70%
    16:00 +14°C° 0 mm 3 mps 766 mmHg 75%
    17:00 +14°C° 0 mm 3 mps 766 mmHg 76%
    18:00 +14°C° 0 mm 2 mps 766 mmHg 77%
    19:00 +13°C° 0 mm 2 mps 766 mmHg 79%
    20:00 +13°C° 0 mm 2 mps 767 mmHg 79%
    21:00 +13°C° 0 mm 2 mps 767 mmHg 79%
    22:00 +13°C° 0 mm 2 mps 767 mmHg 79%
    23:00 +13°C° 0 mm 2 mps 767 mmHg 79%
    Mostrar más